Hourly Data Report for August 01, 2018

TORONTO CITY
ONTARIO
Current Station Operator: ECCC - MSC

43°40'00.000" N
79°24'00.000" W
112.50 m
6158355
71508
XTO

Download Data

Hourly Data (August 2018)
Hourly Data Report for August 1, 2018
TIME
LST
Temp Definition
°C
Dew Point Definition
°C
Rel Hum Definition
%
Precip. Amount Definition
mm

Wind Dir Definition
10's deg

Wind Spd Definition
km/h
Visibility Definition
km
Stn Press Definition
kPa
Hmdx Definition


Wind Chill Definition


Weather Definition


00:00 23.0 19.1 79 0.0 LegendMM LegendMM   100.02 30   LegendNANA
01:00 23.0 18.4 75 0.0 LegendMM LegendMM   100.00 29   LegendNANA
02:00 22.6 18.4 77 0.0 LegendMM LegendMM   99.94 29   LegendNANA
03:00 22.5 18.4 78 0.0 LegendMM LegendMM   99.91 29   LegendNANA
04:00 22.4 18.7 79 0.0 LegendMM LegendMM   99.87 29   LegendNANA
05:00 22.5 19.1 81 0.0 LegendMM LegendMM   99.85 29   LegendNANA
06:00 23.3 19.0 77 0.0 LegendMM LegendMM   99.84 30   LegendNANA
07:00 23.3 18.9 76 0.0 LegendMM LegendMM   99.85 30   LegendNANA
08:00 23.6 18.9 75 0.0 LegendMM LegendMM   99.83 30   LegendNANA
09:00 23.9 19.2 75 0.0 LegendMM LegendMM   99.82 31   LegendNANA
10:00 24.4 19.1 72 0.0 LegendMM LegendMM   99.85 31   LegendNANA
11:00 25.6 19.8 70 0.0 LegendMM LegendMM   99.85 33   LegendNANA
12:00 24.7 18.8 70 0.0 LegendMM LegendMM   99.84 31   LegendNANA
13:00 25.0 18.9 69 0.0 LegendMM LegendMM   99.83 32   LegendNANA
14:00 25.1 18.5 67 0.0 LegendMM LegendMM   99.79 31   LegendNANA
15:00 25.3 18.0 64 0.0 LegendMM LegendMM   99.77 31   LegendNANA
16:00 25.2 18.3 65 0.0 LegendMM LegendMM   99.81 31   LegendNANA
17:00 24.7 18.7 69 0.0 LegendMM LegendMM   99.82 31   LegendNANA
18:00 24.9 17.5 64 0.0 LegendMM LegendMM   99.85 31   LegendNANA
19:00 24.4 17.9 67 0.0 LegendMM LegendMM   99.86 30   LegendNANA
20:00 24.0 17.6 68 0.0 LegendMM LegendMM   99.95 30   LegendNANA
21:00 23.4 17.6 70 0.0 LegendMM LegendMM   100.04 29   LegendNANA
22:00 23.1 17.0 69 0.0 LegendMM LegendMM   100.06 28   LegendNANA
23:00 22.7 16.8 70 0.0 LegendMM LegendMM   100.10 28   LegendNANA

Notes on Data Quality.

Legend

  • E = Estimated
  • M = Missing
  • NA = Not Available*
  • [empty] = Indicates an unobserved value
Date modified: